THORAD AGENA D DEB, 4743

Orbit data source: Space-Track

THORAD AGENA D DEB, 4743 is space debris in SSO originally from a launch on Wed, 08 Apr 1970 UTC launched from the Air Force Western Test Range (AFWTR). Debris objects in space refer to the collection of defunct objects orbiting the Earth. Examples of debris include non-operational satellites, rocket bodies, and fragments generated from explosions, collisions, or faulty payload assembly.

Loading next visibility...
Identifier
4743, 1970-025CS
Orbit
SSO
Country
Flag of USUS
Related business
Manufacturer
Unknown
Mission
Spacecraft
Bus & Motor
Unknown
Mass
Unknown
Launch date (UTC)
1970-04-08 (56 years ago)
Launch vehicle
Unknown
Launch site
Air Force Western Test Range (AFWTR)
Object type
Payload
Rocket body
Debris
Shape & HBR
Unknown shape, 0.1 m
Radar Cross Section
Medium (>0.1 m² and <1 m²)

Expand to show TLE details & history
Last TLE update: 12 hours ago

TLE from 12 hours ago
0 THORAD AGENA D DEB
1 04743U 70025CS  25340.93598601  .00000480  00000-0  72097-3 0  9997
2 04743  99.9194  53.6215 0035830  74.0097 338.6093 13.58288152746955
Epoch: 2025-12-06T22:27Z
TLE epoch observation values (Epoch: 2025-12-06T22:27:49.191Z)
Latitude
51.46606°
Longitude
-11.90791°
Altitude
1,025.367 km
Speed
7.356 km/s
True Right ascension
02h 44m 00s
True Declination
51° 18' 16"
Sunlit
Object was in full shadow at epoch
Visualization orbit readout
Latitude
Unknown
Longitude
Unknown
Altitude
Unknown
Speed
Unknown
Apparent Right ascension
Unknown
Apparent Declination
Unknown
Sunlit
N/A
Visualization observer readout
Local Sidereal Time
08:53:46
Azimuth
Unknown
Elevation
Unknown
Doppler factor
Unknown
Orbital elements
Apogee altitude
1,065.798 km
Perigee altitude
1,012.645 km
Semi-major axis
7,417.359 km
Eccentricity
0.00358
Inclination
99.9194°
RAAN
53.6215°
Arg. of periapsis
74.0097°
True anomaly
338.45892°
Mean anomaly
338.6093°
Eccentric anomaly
338.53417°
Mean motion
3.39758 °/min
Orbital period
105.96 mins
BSTAR
0.00072097
Loading maneuver chart data...
Computing Atmospheric mass density...

Documentation

Showing up to 5 results
|